Time,TemperatureF,DewpointF,PressureIn,WindDirection,WindDirectionDegrees,WindSpeedMPH,WindSpeedGustMPH,Humidity,HourlyPrecipIn,Conditions,Clouds,dailyrainin,SoftwareType,DateUTC
2013-10-18 00:01:00,69.5,65.1,30.04,SE,134,3.5,3.5,86,0.00,FEW,,0.00,WeatherDisplay:10.37,2013-10-17 22:01:00,
2013-10-18 00:06:00,69.5,65.1,30.04,SE,134,3.5,3.5,86,0.00,FEW,,0.00,WeatherDisplay:10.37,2013-10-17 22:06:00,
2013-10-18 00:11:00,69.4,65.0,30.04,SE,128,3.5,3.5,86,0.00,FEW,,0.00,WeatherDisplay:10.37,2013-10-17 22:11:00,
2013-10-18 00:16:00,69.4,65.0,30.04,SE,125,3.5,3.5,86,0.00,FEW,,0.00,WeatherDisplay:10.37,2013-10-17 22:16:00,
2013-10-18 00:21:00,69.4,65.0,30.04,SE,124,3.5,3.5,86,0.00,FEW,,0.00,WeatherDisplay:10.37,2013-10-17 22:21:00,
2013-10-18 00:26:00,69.4,65.0,30.04,SE,126,3.5,3.5,86,0.00,FEW,,0.00,WeatherDisplay:10.37,2013-10-17 22:26:00,
2013-10-18 00:31:00,69.3,64.9,30.04,SE,127,3.5,3.5,86,0.00,FEW,,0.00,WeatherDisplay:10.37,2013-10-17 22:31:00,
2013-10-18 00:36:00,69.3,64.9,30.03,ESE,114,4.0,4.0,86,0.00,FEW,,0.00,WeatherDisplay:10.37,2013-10-17 22:36:00,
2013-10-18 00:41:00,69.3,64.9,30.03,ESE,114,3.5,3.5,86,0.00,FEW,,0.00,WeatherDisplay:10.37,2013-10-17 22:41:00,
2013-10-18 00:46:00,69.3,64.9,30.03,ESE,116,3.5,3.5,86,0.00,FEW,,0.00,WeatherDisplay:10.37,2013-10-17 22:46:00,
2013-10-18 00:51:00,69.3,64.9,30.03,ESE,118,5.0,5.0,86,0.00,FEW,,0.00,WeatherDisplay:10.37,2013-10-17 22:51:00,
2013-10-18 00:56:00,69.3,64.9,30.03,ESE,117,5.0,5.0,86,0.00,FEW,,0.00,WeatherDisplay:10.37,2013-10-17 22:56:00,
2013-10-18 01:01:00,69.4,65.0,30.03,ESE,117,3.5,3.5,86,0.00,FEW,,0.00,WeatherDisplay:10.37,2013-10-17 23:01:00,
2013-10-18 01:06:00,69.4,65.0,30.03,ESE,122,4.6,4.6,86,0.00,FEW,,0.00,WeatherDisplay:10.37,2013-10-17 23:06:00,
2013-10-18 01:11:00,69.3,64.9,30.03,ESE,119,4.0,4.0,86,0.00,FEW,,0.00,WeatherDisplay:10.37,2013-10-17 23:11:00,
2013-10-18 01:16:00,69.3,65.3,30.03,ESE,112,6.9,6.9,87,0.00,FEW,,0.00,WeatherDisplay:10.37,2013-10-17 23:16:00,
2013-10-18 01:21:00,69.3,65.3,30.02,ESE,121,6.9,6.9,87,0.00,FEW,,0.00,WeatherDisplay:10.37,2013-10-17 23:21:00,
2013-10-18 01:26:00,69.3,65.3,30.02,ESE,114,6.9,6.9,87,0.00,FEW,,0.00,WeatherDisplay:10.37,2013-10-17 23:26:00,
2013-10-18 01:31:00,69.3,65.3,30.02,ESE,119,4.6,4.6,87,0.00,FEW,,0.00,WeatherDisplay:10.37,2013-10-17 23:31:00,
2013-10-18 01:36:00,69.2,65.2,30.02,ESE,110,4.6,4.6,87,0.00,FEW,,0.00,WeatherDisplay:10.37,2013-10-17 23:36:00,
2013-10-18 01:41:00,69.2,65.2,30.02,ESE,121,3.5,3.5,87,0.00,FEW,,0.00,WeatherDisplay:10.37,2013-10-17 23:41:00,
2013-10-18 01:46:00,69.1,65.1,30.02,ESE,116,4.6,4.6,87,0.00,FEW,,0.00,WeatherDisplay:10.37,2013-10-17 23:46:00,
2013-10-18 01:51:00,69.1,65.1,30.02,ESE,114,3.5,3.5,87,0.00,FEW,,0.00,WeatherDisplay:10.37,2013-10-17 23:51:00,
2013-10-18 01:56:00,69.1,65.4,30.02,ESE,118,3.5,3.5,88,0.00,FEW,,0.00,WeatherDisplay:10.37,2013-10-17 23:56:00,
2013-10-18 02:01:00,69.1,65.4,30.02,ESE,119,3.5,3.5,88,0.00,FEW,,0.00,WeatherDisplay:10.37,2013-10-18 00:01:00,
2013-10-18 02:06:00,69.1,65.4,30.02,SE,131,3.5,3.5,88,0.00,FEW,,0.00,WeatherDisplay:10.37,2013-10-18 00:06:00,
2013-10-18 02:11:00,69.1,65.4,30.02,SE,125,3.5,3.5,88,0.00,FEW,,0.00,WeatherDisplay:10.37,2013-10-18 00:11:00,
2013-10-18 02:16:00,69.1,65.4,30.02,ESE,122,3.5,3.5,88,0.00,FEW,,0.00,WeatherDisplay:10.37,2013-10-18 00:16:00,
2013-10-18 02:21:00,69.1,65.4,30.02,ESE,117,3.5,3.5,88,0.00,FEW,,0.00,WeatherDisplay:10.37,2013-10-18 00:21:00,
2013-10-18 02:26:00,69.1,65.4,30.02,ESE,118,3.5,3.5,88,0.00,FEW,,0.00,WeatherDisplay:10.37,2013-10-18 00:26:00,
2013-10-18 02:31:00,69.0,65.3,30.02,SE,128,4.0,4.0,88,0.00,FEW,,0.00,WeatherDisplay:10.37,2013-10-18 00:31:00,
2013-10-18 02:36:00,69.0,65.3,30.02,SE,135,3.5,3.5,88,0.00,FEW,,0.00,WeatherDisplay:10.37,2013-10-18 00:36:00,
2013-10-18 02:41:00,69.0,65.3,30.02,SE,131,4.0,4.0,88,0.00,FEW,,0.00,WeatherDisplay:10.37,2013-10-18 00:41:00,
2013-10-18 02:46:00,69.0,65.3,30.01,SE,137,4.6,4.6,88,0.00,FEW,,0.00,WeatherDisplay:10.37,2013-10-18 00:46:00,
2013-10-18 02:51:00,69.0,65.3,30.01,SE,145,3.5,3.5,88,0.00,FEW,,0.00,WeatherDisplay:10.37,2013-10-18 00:51:00,
2013-10-18 02:56:00,69.0,65.3,30.01,SE,133,3.5,3.5,88,0.00,FEW,,0.00,WeatherDisplay:10.37,2013-10-18 00:56:00,
2013-10-18 03:01:00,69.0,65.3,30.01,SE,125,3.5,3.5,88,0.00,FEW,,0.00,WeatherDisplay:10.37,2013-10-18 01:01:00,
2013-10-18 03:06:00,69.1,65.4,30.01,ESE,123,3.5,3.5,88,0.00,FEW,,0.00,WeatherDisplay:10.37,2013-10-18 01:06:00,
2013-10-18 03:11:00,69.1,65.4,30.01,SE,125,3.5,3.5,88,0.00,FEW,,0.00,WeatherDisplay:10.37,2013-10-18 01:11:00,
2013-10-18 03:16:00,69.0,65.3,30.01,SE,125,3.5,3.5,88,0.00,FEW,,0.00,WeatherDisplay:10.37,2013-10-18 01:16:00,
2013-10-18 03:21:00,69.0,65.3,30.01,SE,125,3.5,3.5,88,0.00,FEW,,0.00,WeatherDisplay:10.37,2013-10-18 01:21:00,
2013-10-18 03:26:00,69.0,65.3,30.01,ESE,114,3.5,3.5,88,0.00,FEW,,0.00,WeatherDisplay:10.37,2013-10-18 01:26:00,
2013-10-18 03:31:00,69.0,65.3,30.01,SE,127,3.5,3.5,88,0.00,FEW,,0.00,WeatherDisplay:10.37,2013-10-18 01:31:00,
2013-10-18 03:36:00,69.0,65.3,30.01,SE,127,3.5,3.5,88,0.00,FEW,,0.00,WeatherDisplay:10.37,2013-10-18 01:36:00,
2013-10-18 03:41:00,69.1,65.4,30.01,SE,133,4.0,4.0,88,0.00,FEW,,0.00,WeatherDisplay:10.37,2013-10-18 01:41:00,
2013-10-18 03:46:00,69.0,65.3,30.01,SE,135,3.5,3.5,88,0.00,FEW,,0.00,WeatherDisplay:10.37,2013-10-18 01:46:00,
2013-10-18 03:51:00,69.0,65.3,30.00,SE,134,2.3,2.3,88,0.00,FEW,,0.00,WeatherDisplay:10.37,2013-10-18 01:51:00,
2013-10-18 03:56:00,69.0,65.3,30.00,SE,133,2.3,2.3,88,0.00,FEW,,0.00,WeatherDisplay:10.37,2013-10-18 01:56:00,
2013-10-18 04:01:00,69.0,65.3,30.00,SE,133,2.3,2.3,88,0.00,FEW,,0.00,WeatherDisplay:10.37,2013-10-18 02:01:00,
2013-10-18 04:06:00,69.1,65.4,30.00,SE,133,2.3,2.3,88,0.00,FEW,,0.00,WeatherDisplay:10.37,2013-10-18 02:06:00,
2013-10-18 04:11:00,69.1,65.4,30.00,SE,133,2.3,2.3,88,0.00,FEW,,0.00,WeatherDisplay:10.37,2013-10-18 02:11:00,
2013-10-18 04:16:00,69.1,65.4,30.00,SE,133,3.5,3.5,88,0.00,FEW,,0.00,WeatherDisplay:10.37,2013-10-18 02:16:00,
2013-10-18 04:21:00,69.1,65.4,30.00,SE,133,3.5,3.5,88,0.00,FEW,,0.00,WeatherDisplay:10.37,2013-10-18 02:21:00,
2013-10-18 04:26:00,69.1,65.4,30.00,SE,133,1.1,1.1,88,0.00,FEW,,0.00,WeatherDisplay:10.37,2013-10-18 02:26:00,
2013-10-18 04:31:00,69.1,65.4,30.00,SE,133,3.5,3.5,88,0.00,FEW,,0.00,WeatherDisplay:10.37,2013-10-18 02:31:00,
2013-10-18 04:36:00,69.1,65.7,30.00,SE,133,2.3,2.3,89,0.00,FEW,,0.00,WeatherDisplay:10.37,2013-10-18 02:36:00,
2013-10-18 04:41:00,69.1,65.7,30.00,SE,132,4.0,4.0,89,0.00,FEW,,0.00,WeatherDisplay:10.37,2013-10-18 02:41:00,
2013-10-18 04:46:00,69.1,65.7,30.00,SE,133,3.5,3.5,89,0.00,FEW,,0.00,WeatherDisplay:10.37,2013-10-18 02:46:00,
2013-10-18 04:51:00,69.1,65.7,30.00,SE,133,3.5,3.5,89,0.00,FEW,,0.00,WeatherDisplay:10.37,2013-10-18 02:51:00,
2013-10-18 04:56:00,69.1,65.7,30.00,SE,133,3.5,3.5,89,0.00,FEW,,0.00,WeatherDisplay:10.37,2013-10-18 02:56:00,
2013-10-18 05:01:00,69.1,65.7,30.00,SE,133,3.5,3.5,89,0.00,FEW,,0.00,WeatherDisplay:10.37,2013-10-18 03:01:00,
2013-10-18 05:06:00,69.1,65.7,30.00,SE,133,2.3,2.3,89,0.00,FEW,,0.00,WeatherDisplay:10.37,2013-10-18 03:06:00,
2013-10-18 05:11:00,69.0,65.6,30.00,SE,133,3.5,3.5,89,0.00,FEW,,0.00,WeatherDisplay:10.37,2013-10-18 03:11:00,
2013-10-18 05:16:00,69.0,65.6,30.00,SE,134,2.3,2.3,89,0.00,FEW,,0.00,WeatherDisplay:10.37,2013-10-18 03:16:00,
2013-10-18 05:21:00,68.9,65.5,29.99,SE,134,2.3,2.3,89,0.00,FEW,,0.00,WeatherDisplay:10.37,2013-10-18 03:21:00,
2013-10-18 05:26:00,68.9,65.5,29.99,SE,133,3.5,3.5,89,0.00,FEW,,0.00,WeatherDisplay:10.37,2013-10-18 03:26:00,
2013-10-18 05:31:00,68.9,65.5,29.99,SE,134,2.3,2.3,89,0.00,FEW,,0.00,WeatherDisplay:10.37,2013-10-18 03:31:00,
2013-10-18 05:36:00,68.9,65.5,29.99,SE,133,2.3,2.3,89,0.00,FEW,,0.00,WeatherDisplay:10.37,2013-10-18 03:36:00,
2013-10-18 05:41:00,68.8,65.7,29.99,SE,133,2.3,2.3,90,0.00,FEW,,0.00,WeatherDisplay:10.37,2013-10-18 03:41:00,
2013-10-18 05:46:00,68.8,65.7,29.99,SE,133,3.5,3.5,90,0.00,FEW,,0.00,WeatherDisplay:10.37,2013-10-18 03:46:00,
2013-10-18 05:51:00,68.9,65.8,29.99,ESE,123,3.5,3.5,90,0.00,FEW,,0.00,WeatherDisplay:10.37,2013-10-18 03:51:00,
2013-10-18 05:56:00,68.8,65.7,29.99,ESE,117,4.0,4.0,90,0.00,FEW,,0.00,WeatherDisplay:10.37,2013-10-18 03:56:00,
2013-10-18 06:01:00,68.8,65.7,29.98,ESE,112,4.0,4.0,90,0.00,FEW,,0.00,WeatherDisplay:10.37,2013-10-18 04:01:00,
2013-10-18 06:02:00,68.8,65.7,29.98,ESE,112,4.0,4.0,90,0.00,FEW,,0.00,WeatherDisplay:10.37,2013-10-18 04:02:00,
2013-10-18 06:07:00,68.8,65.7,29.99,ESE,115,4.6,4.6,90,0.00,FEW,,0.00,WeatherDisplay:10.37,2013-10-18 04:07:00,
2013-10-18 06:12:00,68.8,65.7,29.99,ESE,117,3.5,3.5,90,0.00,FEW,,0.00,WeatherDisplay:10.37,2013-10-18 04:12:00,
2013-10-18 06:17:00,68.7,65.6,29.99,ESE,118,4.6,4.6,90,0.00,FEW,,0.00,WeatherDisplay:10.37,2013-10-18 04:17:00,
2013-10-18 06:22:00,68.7,65.6,29.99,ESE,113,4.6,4.6,90,0.00,FEW,,0.00,WeatherDisplay:10.37,2013-10-18 04:22:00,
2013-10-18 06:27:00,68.7,65.6,29.98,ESE,112,4.0,4.0,90,0.00,FEW,,0.00,WeatherDisplay:10.37,2013-10-18 04:27:00,
2013-10-18 06:32:00,68.7,65.6,29.98,East,85,5.0,5.0,90,0.00,FEW,,0.00,WeatherDisplay:10.37,2013-10-18 04:32:00,
2013-10-18 06:37:00,68.5,65.4,29.98,ESE,110,5.8,5.8,90,0.00,FEW,,0.00,WeatherDisplay:10.37,2013-10-18 04:37:00,
2013-10-18 06:42:00,68.6,65.9,29.98,ESE,112,6.9,6.9,91,0.00,FEW,,0.00,WeatherDisplay:10.37,2013-10-18 04:42:00,
2013-10-18 06:47:00,68.6,65.9,29.98,SE,125,4.6,4.6,91,0.00,FEW,,0.00,WeatherDisplay:10.37,2013-10-18 04:47:00,
2013-10-18 06:52:00,68.6,65.9,29.98,ESE,122,4.6,4.6,91,0.00,FEW,,0.00,WeatherDisplay:10.37,2013-10-18 04:52:00,
2013-10-18 06:57:00,68.6,65.9,29.98,East,101,5.8,5.8,91,0.00,FEW,,0.00,WeatherDisplay:10.37,2013-10-18 04:57:00,
2013-10-18 07:02:00,68.6,65.9,29.98,ESE,118,6.9,6.9,91,0.00,FEW,,0.00,WeatherDisplay:10.37,2013-10-18 05:02:00,
2013-10-18 07:07:00,68.5,65.8,29.98,ESE,115,6.9,6.9,91,0.00,FEW,,0.00,WeatherDisplay:10.37,2013-10-18 05:07:00,
2013-10-18 07:12:00,68.5,65.8,29.98,ESE,111,7.0,7.0,91,0.00,FEW,,0.00,WeatherDisplay:10.37,2013-10-18 05:12:00,
2013-10-18 07:17:00,68.5,65.8,29.98,ESE,102,6.9,6.9,91,0.00,FEW,,0.00,WeatherDisplay:10.37,2013-10-18 05:17:00,
2013-10-18 07:22:00,68.4,65.7,29.98,ESE,104,8.1,8.1,91,0.00,FEW,,0.00,WeatherDisplay:10.37,2013-10-18 05:22:00,
2013-10-18 07:27:00,68.4,65.7,29.97,SE,129,6.9,6.9,91,0.00,FEW,,0.00,WeatherDisplay:10.37,2013-10-18 05:27:00,
2013-10-18 07:32:00,68.4,65.7,29.98,ESE,102,6.9,6.9,91,0.00,FEW,,0.00,WeatherDisplay:10.37,2013-10-18 05:32:00,
2013-10-18 07:37:00,68.4,65.7,29.97,ESE,110,6.9,6.9,91,0.00,FEW,,0.00,WeatherDisplay:10.37,2013-10-18 05:37:00,
2013-10-18 07:42:00,68.4,65.7,29.97,East,86,5.8,5.8,91,0.00,FEW,,0.00,WeatherDisplay:10.37,2013-10-18 05:42:00,
2013-10-18 07:47:00,68.4,65.7,29.98,East,94,6.0,6.0,91,0.00,FEW,,0.00,WeatherDisplay:10.37,2013-10-18 05:47:00,
2013-10-18 07:52:00,68.5,65.8,29.98,East,101,4.6,4.6,91,0.00,FEW,,0.00,WeatherDisplay:10.37,2013-10-18 05:52:00,
2013-10-18 07:57:00,68.5,65.8,29.98,ESE,116,6.9,6.9,91,0.00,FEW,,0.00,WeatherDisplay:10.37,2013-10-18 05:57:00,
2013-10-18 08:02:00,68.5,65.8,29.98,ESE,106,6.0,6.0,91,0.00,FEW,,0.00,WeatherDisplay:10.37,2013-10-18 06:02:00,
2013-10-18 08:07:00,68.5,65.8,29.97,ESE,108,5.8,5.8,91,0.00,FEW,,0.00,WeatherDisplay:10.37,2013-10-18 06:07:00,
2013-10-18 08:12:00,68.3,65.6,29.97,East,96,6.9,6.9,91,0.00,FEW,,0.00,WeatherDisplay:10.37,2013-10-18 06:12:00,
2013-10-18 08:17:00,68.3,65.6,29.98,East,100,5.0,5.0,91,0.00,FEW,,0.00,WeatherDisplay:10.37,2013-10-18 06:17:00,
2013-10-18 08:22:00,68.4,65.7,29.98,East,101,4.6,4.6,91,0.00,FEW,,0.00,WeatherDisplay:10.37,2013-10-18 06:22:00,
2013-10-18 08:27:00,68.4,65.7,29.98,ENE,58,4.6,4.6,91,0.00,FEW,,0.00,WeatherDisplay:10.37,2013-10-18 06:27:00,
2013-10-18 08:32:00,68.5,65.8,29.98,ESE,113,5.8,5.8,91,0.00,FEW,,0.00,WeatherDisplay:10.37,2013-10-18 06:32:00,
2013-10-18 08:37:00,68.5,65.8,29.98,SE,125,8.1,8.1,91,0.00,FEW,,0.00,WeatherDisplay:10.37,2013-10-18 06:37:00,
2013-10-18 08:42:00,68.6,65.9,29.99,ESE,111,3.5,3.5,91,0.00,FEW,,0.00,WeatherDisplay:10.37,2013-10-18 06:42:00,
2013-10-18 08:47:00,68.7,66.0,29.99,ESE,114,3.5,3.5,91,0.00,FEW,,0.00,WeatherDisplay:10.37,2013-10-18 06:47:00,
2013-10-18 08:52:00,68.7,66.0,29.99,ESE,119,4.0,4.0,91,0.00,FEW,,0.00,WeatherDisplay:10.37,2013-10-18 06:52:00,
2013-10-18 08:57:00,68.8,66.1,30.00,ESE,119,3.5,3.5,91,0.00,FEW,,0.00,WeatherDisplay:10.37,2013-10-18 06:57:00,
2013-10-18 09:02:00,68.8,66.1,29.99,ESE,114,4.6,4.6,91,0.00,FEW,,0.00,WeatherDisplay:10.37,2013-10-18 07:02:00,
2013-10-18 09:07:00,69.0,65.9,30.00,ESE,114,3.5,3.5,90,0.00,FEW,,0.00,WeatherDisplay:10.37,2013-10-18 07:07:00,
2013-10-18 09:12:00,69.0,65.9,30.00,ESE,113,2.3,2.3,90,0.00,FEW,,0.00,WeatherDisplay:10.37,2013-10-18 07:12:00,
2013-10-18 09:17:00,69.1,66.0,30.00,ESE,114,1.1,0.0,90,0.00,FEW,,0.00,WeatherDisplay:10.37,2013-10-18 07:17:00,
2013-10-18 09:22:00,69.2,66.1,30.01,ESE,114,1.1,1.1,90,0.00,FEW,,0.00,WeatherDisplay:10.37,2013-10-18 07:22:00,
2013-10-18 09:27:00,69.3,66.2,30.01,ESE,113,1.1,1.1,90,0.00,FEW,,0.00,WeatherDisplay:10.37,2013-10-18 07:27:00,
2013-10-18 09:32:00,69.3,66.2,30.00,ESE,113,3.5,3.5,90,0.00,FEW,,0.00,WeatherDisplay:10.37,2013-10-18 07:32:00,
2013-10-18 09:37:00,69.3,65.9,29.99,East,91,9.2,9.2,89,0.00,FEW,,0.00,WeatherDisplay:10.37,2013-10-18 07:37:00,
2013-10-18 09:42:00,69.2,65.8,29.99,East,82,6.9,6.9,89,0.00,FEW,,0.00,WeatherDisplay:10.37,2013-10-18 07:42:00,
2013-10-18 09:47:00,69.1,65.7,29.99,East,97,9.2,9.2,89,0.00,FEW,,0.00,WeatherDisplay:10.37,2013-10-18 07:47:00,
2013-10-18 09:52:00,69.1,65.7,29.99,ENE,77,8.1,8.1,89,0.00,FEW,,0.00,WeatherDisplay:10.37,2013-10-18 07:52:00,
2013-10-18 09:57:00,69.1,65.7,30.00,SE,124,4.6,4.6,89,0.00,FEW,,0.00,WeatherDisplay:10.37,2013-10-18 07:57:00,
2013-10-18 10:02:00,69.2,65.8,30.00,ESE,112,9.2,9.2,89,0.00,FEW,,0.00,WeatherDisplay:10.37,2013-10-18 08:02:00,
2013-10-18 10:07:00,69.3,65.9,30.00,ESE,110,9.2,9.2,89,0.00,FEW,,0.00,WeatherDisplay:10.37,2013-10-18 08:07:00,
2013-10-18 10:12:00,69.8,66.4,30.00,East,83,7.0,7.0,89,0.00,FEW,,0.00,WeatherDisplay:10.37,2013-10-18 08:12:00,
2013-10-18 10:17:00,70.5,66.8,30.00,ENE,67,9.2,9.2,88,0.00,FEW,,0.00,WeatherDisplay:10.37,2013-10-18 08:17:00,
2013-10-18 10:22:00,70.6,66.5,30.00,ESE,118,6.9,6.9,87,0.00,FEW,,0.00,WeatherDisplay:10.37,2013-10-18 08:22:00,
2013-10-18 10:27:00,70.7,66.6,30.00,East,94,8.1,8.1,87,0.00,FEW,,0.00,WeatherDisplay:10.37,2013-10-18 08:27:00,
2013-10-18 10:32:00,71.2,67.1,30.00,East,94,9.0,9.0,87,0.00,FEW,,0.00,WeatherDisplay:10.37,2013-10-18 08:32:00,
2013-10-18 10:37:00,71.4,67.0,30.00,ESE,119,10.4,10.4,86,0.00,FEW,,0.00,WeatherDisplay:10.37,2013-10-18 08:37:00,
2013-10-18 10:42:00,71.8,67.0,30.01,East,86,6.0,6.0,85,0.00,FEW,,0.00,WeatherDisplay:10.37,2013-10-18 08:42:00,
2013-10-18 10:47:00,72.1,67.0,30.01,ENE,77,6.9,6.9,84,0.00,FEW,,0.00,WeatherDisplay:10.37,2013-10-18 08:47:00,
2013-10-18 10:52:00,72.2,67.1,30.01,SE,126,6.9,6.9,84,0.00,FEW,,0.00,WeatherDisplay:10.37,2013-10-18 08:52:00,
2013-10-18 10:57:00,72.4,66.9,30.01,ESE,122,8.1,8.1,83,0.00,FEW,,0.00,WeatherDisplay:10.37,2013-10-18 08:57:00,
2013-10-18 11:02:00,72.7,66.5,30.01,East,82,5.8,5.8,81,0.00,FEW,,0.00,WeatherDisplay:10.37,2013-10-18 09:02:00,
2013-10-18 11:07:00,72.7,65.4,30.01,East,81,6.0,6.0,78,0.00,FEW,,0.00,WeatherDisplay:10.37,2013-10-18 09:07:00,
2013-10-18 11:12:00,72.9,64.9,30.01,East,93,5.8,5.8,76,0.00,FEW,,0.00,WeatherDisplay:10.37,2013-10-18 09:12:00,
2013-10-18 11:17:00,73.0,65.0,30.01,SE,135,8.1,8.1,76,0.00,FEW,,0.00,WeatherDisplay:10.37,2013-10-18 09:17:00,
2013-10-18 11:22:00,72.9,65.3,30.01,ESE,106,8.1,8.1,77,0.00,FEW,,0.00,WeatherDisplay:10.37,2013-10-18 09:22:00,
2013-10-18 11:27:00,73.0,66.1,30.01,SE,136,8.1,8.1,79,0.00,FEW,,0.00,WeatherDisplay:10.37,2013-10-18 09:27:00,
2013-10-18 11:32:00,72.8,65.5,30.01,SE,139,4.6,4.6,78,0.00,FEW,,0.00,WeatherDisplay:10.37,2013-10-18 09:32:00,
2013-10-18 11:37:00,72.6,65.0,30.01,SE,124,9.2,9.2,77,0.00,FEW,,0.00,WeatherDisplay:10.37,2013-10-18 09:37:00,
2013-10-18 11:42:00,72.7,65.8,30.01,ESE,115,8.1,8.1,79,0.00,FEW,,0.00,WeatherDisplay:10.37,2013-10-18 09:42:00,
2013-10-18 11:47:00,73.1,66.6,30.01,SE,133,8.1,8.1,80,0.00,FEW,,0.00,WeatherDisplay:10.37,2013-10-18 09:47:00,
2013-10-18 11:52:00,73.0,66.1,30.01,ESE,104,9.2,9.2,79,0.00,FEW,,0.00,WeatherDisplay:10.37,2013-10-18 09:52:00,
2013-10-18 11:57:00,72.8,65.9,30.01,SE,126,10.4,10.4,79,0.00,FEW,,0.00,WeatherDisplay:10.37,2013-10-18 09:57:00,
2013-10-18 12:02:00,73.0,66.1,30.01,ESE,121,8.1,8.1,79,0.00,FEW,,0.00,WeatherDisplay:10.37,2013-10-18 10:02:00,
2013-10-18 12:07:00,72.8,66.3,30.01,ENE,67,3.0,3.0,80,0.00,FEW,,0.00,WeatherDisplay:10.37,2013-10-18 10:07:00,
2013-10-18 12:12:00,72.7,65.8,30.00,SE,131,10.4,10.4,79,0.00,FEW,,0.00,WeatherDisplay:10.37,2013-10-18 10:12:00,
2013-10-18 12:17:00,72.7,65.8,30.01,ENE,78,9.0,9.0,79,0.00,FEW,,0.00,WeatherDisplay:10.37,2013-10-18 10:17:00,
2013-10-18 12:22:00,72.8,65.2,30.01,East,93,8.1,8.1,77,0.00,FEW,,0.00,WeatherDisplay:10.37,2013-10-18 10:22:00,
2013-10-18 12:27:00,73.1,65.8,30.01,ESE,119,9.2,9.2,78,0.00,FEW,,0.00,WeatherDisplay:10.37,2013-10-18 10:27:00,
2013-10-18 12:32:00,73.0,65.0,30.00,SE,130,8.1,8.1,76,0.00,FEW,,0.00,WeatherDisplay:10.37,2013-10-18 10:32:00,
2013-10-18 12:37:00,72.9,64.9,30.00,SE,146,8.1,8.1,76,0.00,FEW,,0.00,WeatherDisplay:10.37,2013-10-18 10:37:00,
2013-10-18 12:42:00,73.3,65.7,30.01,SE,135,6.0,6.0,77,0.00,FEW,,0.00,WeatherDisplay:10.37,2013-10-18 10:42:00,
2013-10-18 12:47:00,73.3,65.7,30.00,East,97,11.5,11.5,77,0.00,FEW,,0.00,WeatherDisplay:10.37,2013-10-18 10:47:00,
2013-10-18 12:52:00,73.6,65.9,30.00,SE,125,8.1,8.1,77,0.00,FEW,,0.00,WeatherDisplay:10.37,2013-10-18 10:52:00,
2013-10-18 12:57:00,73.6,65.2,30.00,ESE,102,9.0,9.0,75,0.00,FEW,,0.00,WeatherDisplay:10.37,2013-10-18 10:57:00,
2013-10-18 13:02:00,73.9,65.1,30.00,SE,131,8.1,8.1,74,0.00,FEW,,0.00,WeatherDisplay:10.37,2013-10-18 11:02:00,
2013-10-18 13:07:00,73.9,65.1,30.00,SE,130,8.1,8.1,74,0.00,FEW,,0.00,WeatherDisplay:10.37,2013-10-18 11:07:00,
2013-10-18 13:12:00,74.0,65.6,30.00,ESE,112,8.1,8.1,75,0.00,FEW,,0.00,WeatherDisplay:10.37,2013-10-18 11:12:00,
2013-10-18 13:17:00,73.9,64.7,30.00,ESE,120,10.4,10.4,73,0.00,FEW,,0.00,WeatherDisplay:10.37,2013-10-18 11:17:00,
2013-10-18 13:22:00,74.3,65.9,30.00,East,99,9.0,9.0,75,0.00,FEW,,0.00,WeatherDisplay:10.37,2013-10-18 11:22:00,
2013-10-18 13:27:00,74.6,65.4,29.99,SE,125,10.4,10.4,73,0.00,FEW,,0.00,WeatherDisplay:10.37,2013-10-18 11:27:00,
2013-10-18 13:32:00,74.5,65.3,29.99,SE,139,10.4,10.4,73,0.00,FEW,,0.00,WeatherDisplay:10.37,2013-10-18 11:32:00,
2013-10-18 13:37:00,74.8,64.8,29.99,East,101,9.0,9.0,71,0.00,FEW,,0.00,WeatherDisplay:10.37,2013-10-18 11:37:00,
2013-10-18 13:42:00,74.5,65.7,29.99,SE,142,9.2,9.2,74,0.00,FEW,,0.00,WeatherDisplay:10.37,2013-10-18 11:42:00,
2013-10-18 13:47:00,74.9,64.9,29.99,ESE,122,10.4,10.4,71,0.00,FEW,,0.00,WeatherDisplay:10.37,2013-10-18 11:47:00,
2013-10-18 13:52:00,75.3,65.6,29.98,South,177,4.0,4.0,72,0.00,FEW,,0.00,WeatherDisplay:10.37,2013-10-18 11:52:00,
2013-10-18 13:57:00,75.5,65.4,29.98,ESE,110,9.2,9.2,71,0.00,FEW,,0.00,WeatherDisplay:10.37,2013-10-18 11:57:00,
2013-10-18 14:02:00,75.6,65.9,29.98,ESE,108,4.0,4.0,72,0.00,FEW,,0.00,WeatherDisplay:10.37,2013-10-18 12:02:00,
2013-10-18 14:08:00,75.9,65.4,29.98,ESE,110,10.4,10.4,70,0.00,FEW,,0.00,WeatherDisplay:10.37,2013-10-18 12:08:00,
2013-10-18 14:13:00,76.1,65.2,29.98,ESE,121,5.8,5.8,69,0.00,FEW,,0.00,WeatherDisplay:10.37,2013-10-18 12:13:00,
2013-10-18 14:18:00,76.5,65.1,29.98,ESE,102,8.1,8.1,68,0.00,FEW,,0.00,WeatherDisplay:10.37,2013-10-18 12:18:00,
2013-10-18 14:23:00,76.7,65.8,29.97,SSE,155,5.8,5.8,69,0.00,FEW,,0.00,WeatherDisplay:10.37,2013-10-18 12:23:00,
2013-10-18 14:28:00,76.4,62.9,29.97,SE,139,8.1,8.1,63,0.00,FEW,,0.00,WeatherDisplay:10.37,2013-10-18 12:28:00,
2013-10-18 14:33:00,75.8,63.2,29.97,SE,137,6.0,6.0,65,0.00,FEW,,0.00,WeatherDisplay:10.37,2013-10-18 12:33:00,
2013-10-18 14:38:00,75.7,62.2,29.97,SSE,153,8.1,8.1,63,0.00,FEW,,0.00,WeatherDisplay:10.37,2013-10-18 12:38:00,
2013-10-18 14:43:00,75.6,62.1,29.97,South,182,5.8,5.8,63,0.00,FEW,,0.00,WeatherDisplay:10.37,2013-10-18 12:43:00,
2013-10-18 14:48:00,76.1,63.9,29.97,SE,145,9.2,9.2,66,0.00,FEW,,0.00,WeatherDisplay:10.37,2013-10-18 12:48:00,
2013-10-18 14:53:00,76.1,63.0,29.97,East,89,6.0,6.0,64,0.00,FEW,,0.00,WeatherDisplay:10.37,2013-10-18 12:53:00,
2013-10-18 14:58:00,75.6,63.0,29.96,ESE,118,10.4,10.4,65,0.00,FEW,,0.00,WeatherDisplay:10.37,2013-10-18 12:58:00,
2013-10-18 15:03:00,75.1,63.4,29.96,SE,127,9.2,9.2,67,0.00,FEW,,0.00,WeatherDisplay:10.37,2013-10-18 13:03:00,
2013-10-18 15:08:00,75.3,64.0,29.96,East,81,7.0,7.0,68,0.00,FEW,,0.00,WeatherDisplay:10.37,2013-10-18 13:08:00,
2013-10-18 15:13:00,74.7,63.9,29.96,North,8,9.0,9.0,69,0.00,FEW,,0.00,WeatherDisplay:10.37,2013-10-18 13:13:00,
2013-10-18 15:18:00,74.6,62.9,29.96,East,82,9.2,9.2,67,0.00,FEW,,0.00,WeatherDisplay:10.37,2013-10-18 13:18:00,
2013-10-18 15:23:00,74.3,62.2,29.96,ESE,116,9.2,9.2,66,0.00,FEW,,0.00,WeatherDisplay:10.37,2013-10-18 13:23:00,
2013-10-18 15:28:00,74.3,60.4,29.95,ESE,111,10.4,10.4,62,0.00,FEW,,0.00,WeatherDisplay:10.37,2013-10-18 13:28:00,
2013-10-18 15:33:00,74.2,62.1,29.96,SE,130,9.2,9.2,66,0.00,FEW,,0.00,WeatherDisplay:10.37,2013-10-18 13:33:00,
2013-10-18 15:38:00,74.0,60.6,29.95,SE,124,11.5,11.5,63,0.00,FEW,,0.00,WeatherDisplay:10.37,2013-10-18 13:38:00,
2013-10-18 15:43:00,74.4,63.6,29.95,ESE,112,6.9,6.9,69,0.00,FEW,,0.00,WeatherDisplay:10.37,2013-10-18 13:43:00,
2013-10-18 15:48:00,74.5,64.5,29.95,SE,127,10.4,10.4,71,0.00,FEW,,0.00,WeatherDisplay:10.37,2013-10-18 13:48:00,
2013-10-18 15:53:00,74.5,65.3,29.96,SSE,153,9.0,9.0,73,0.00,FEW,,0.00,WeatherDisplay:10.37,2013-10-18 13:53:00,
2013-10-18 15:58:00,74.2,64.6,29.95,ESE,105,11.5,11.5,72,0.00,FEW,,0.00,WeatherDisplay:10.37,2013-10-18 13:58:00,
2013-10-18 16:03:00,73.7,65.3,29.95,ESE,115,8.1,8.1,75,0.00,FEW,,0.00,WeatherDisplay:10.37,2013-10-18 14:03:00,
2013-10-18 16:08:00,74.0,65.2,29.95,ESE,123,5.8,5.8,74,0.00,FEW,,0.00,WeatherDisplay:10.37,2013-10-18 14:08:00,
2013-10-18 16:13:00,74.4,66.0,29.96,SE,145,6.0,6.0,75,0.00,FEW,,0.00,WeatherDisplay:10.37,2013-10-18 14:13:00,
2013-10-18 16:18:00,74.6,65.0,29.96,ESE,106,8.1,8.1,72,0.00,FEW,,0.00,WeatherDisplay:10.37,2013-10-18 14:18:00,
2013-10-18 16:23:00,74.2,64.6,29.96,SE,137,10.4,10.4,72,0.00,FEW,,0.00,WeatherDisplay:10.37,2013-10-18 14:23:00,
2013-10-18 16:28:00,73.8,63.4,29.95,ESE,114,11.5,11.5,70,0.00,FEW,,0.00,WeatherDisplay:10.37,2013-10-18 14:28:00,
2013-10-18 16:33:00,73.9,63.5,29.96,SE,136,3.5,3.5,70,0.00,FEW,,0.00,WeatherDisplay:10.37,2013-10-18 14:33:00,
2013-10-18 16:38:00,74.7,65.1,29.96,ESE,119,3.5,3.5,72,0.00,FEW,,0.00,WeatherDisplay:10.37,2013-10-18 14:38:00,
2013-10-18 16:43:00,74.6,65.4,29.96,SSE,152,9.2,9.2,73,0.00,FEW,,0.00,WeatherDisplay:10.37,2013-10-18 14:43:00,
2013-10-18 16:48:00,73.9,63.9,29.96,ESE,118,11.5,11.5,71,0.00,FEW,,0.00,WeatherDisplay:10.37,2013-10-18 14:48:00,
2013-10-18 16:53:00,73.8,64.2,29.95,ESE,104,9.2,9.2,72,0.00,FEW,,0.00,WeatherDisplay:10.37,2013-10-18 14:53:00,
2013-10-18 16:58:00,73.7,64.1,29.96,SSE,166,9.2,9.2,72,0.00,FEW,,0.00,WeatherDisplay:10.37,2013-10-18 14:58:00,
2013-10-18 17:03:00,73.7,64.5,29.96,SE,140,9.2,9.2,73,0.00,FEW,,0.00,WeatherDisplay:10.37,2013-10-18 15:03:00,
2013-10-18 17:08:00,73.6,64.4,29.95,ESE,123,11.5,11.5,73,0.00,FEW,,0.00,WeatherDisplay:10.37,2013-10-18 15:08:00,
2013-10-18 17:13:00,73.4,64.2,29.95,SE,129,11.5,11.5,73,0.00,FEW,,0.00,WeatherDisplay:10.37,2013-10-18 15:13:00,
2013-10-18 17:18:00,73.5,64.7,29.95,SE,134,11.5,11.5,74,0.00,FEW,,0.00,WeatherDisplay:10.37,2013-10-18 15:18:00,
2013-10-18 17:23:00,73.5,64.3,29.95,ESE,110,11.5,11.5,73,0.00,FEW,,0.00,WeatherDisplay:10.37,2013-10-18 15:23:00,
2013-10-18 17:28:00,73.4,65.0,29.96,ESE,108,8.1,8.1,75,0.00,FEW,,0.00,WeatherDisplay:10.37,2013-10-18 15:28:00,
2013-10-18 17:33:00,73.3,64.9,29.95,ESE,119,8.1,8.1,75,0.00,FEW,,0.00,WeatherDisplay:10.37,2013-10-18 15:33:00,
2013-10-18 17:38:00,72.9,64.9,29.95,SE,131,10.4,10.4,76,0.00,FEW,,0.00,WeatherDisplay:10.37,2013-10-18 15:38:00,
2013-10-18 17:43:00,72.6,65.0,29.95,ESE,121,7.0,7.0,77,0.00,FEW,,0.00,WeatherDisplay:10.37,2013-10-18 15:43:00,
2013-10-18 17:48:00,72.4,65.5,29.95,ESE,105,3.5,3.5,79,0.00,FEW,,0.00,WeatherDisplay:10.37,2013-10-18 15:48:00,
2013-10-18 17:53:00,72.2,65.3,29.96,ESE,120,10.4,10.4,79,0.00,FEW,,0.00,WeatherDisplay:10.37,2013-10-18 15:53:00,
2013-10-18 17:58:00,71.9,65.4,29.96,SE,126,4.6,4.6,80,0.00,FEW,,0.00,WeatherDisplay:10.37,2013-10-18 15:58:00,
2013-10-18 18:03:00,71.6,65.5,29.96,ESE,113,8.1,8.1,81,0.00,FEW,,0.00,WeatherDisplay:10.37,2013-10-18 16:03:00,
2013-10-18 18:08:00,71.6,65.5,29.96,ESE,123,8.1,8.1,81,0.00,FEW,,0.00,WeatherDisplay:10.37,2013-10-18 16:08:00,
2013-10-18 18:13:00,71.5,65.7,29.96,East,100,10.4,10.4,82,0.00,FEW,,0.00,WeatherDisplay:10.37,2013-10-18 16:13:00,
2013-10-18 18:18:00,71.3,65.5,29.96,ESE,107,8.1,8.1,82,0.00,FEW,,0.00,WeatherDisplay:10.37,2013-10-18 16:18:00,
2013-10-18 18:23:00,71.2,65.8,29.96,ESE,104,8.1,8.1,83,0.00,FEW,,0.00,WeatherDisplay:10.37,2013-10-18 16:23:00,
2013-10-18 18:28:00,71.1,65.7,29.96,ESE,110,8.0,8.0,83,0.00,FEW,,0.00,WeatherDisplay:10.37,2013-10-18 16:28:00,
2013-10-18 18:33:00,71.0,65.6,29.96,SE,139,8.1,8.1,83,0.00,CLR,,0.00,WeatherDisplay:10.37,2013-10-18 16:33:00,
2013-10-18 18:38:00,70.9,65.8,29.96,ESE,116,9.2,9.2,84,0.00,CLR,,0.00,WeatherDisplay:10.37,2013-10-18 16:38:00,
2013-10-18 18:43:00,70.8,65.7,29.96,ESE,114,10.4,10.4,84,0.00,CLR,,0.00,WeatherDisplay:10.37,2013-10-18 16:43:00,
2013-10-18 18:48:00,70.7,65.6,29.96,ESE,119,9.2,9.2,84,0.00,CLR,,0.00,WeatherDisplay:10.37,2013-10-18 16:48:00,
2013-10-18 18:53:00,70.6,65.5,29.96,ESE,114,9.2,9.2,84,0.00,CLR,,0.00,WeatherDisplay:10.37,2013-10-18 16:53:00,
2013-10-18 18:58:00,70.5,65.4,29.96,SE,129,10.4,10.4,84,0.00,CLR,,0.00,WeatherDisplay:10.37,2013-10-18 16:58:00,
2013-10-18 19:03:00,70.4,65.3,29.96,ENE,70,9.2,9.2,84,0.00,CLR,,0.00,WeatherDisplay:10.37,2013-10-18 17:03:00,
2013-10-18 19:08:00,70.4,65.7,29.96,ESE,122,8.1,8.1,85,0.00,CLR,,0.00,WeatherDisplay:10.37,2013-10-18 17:08:00,
2013-10-18 19:13:00,70.3,65.6,29.96,ESE,116,10.4,10.4,85,0.00,CLR,,0.00,WeatherDisplay:10.37,2013-10-18 17:13:00,
2013-10-18 19:18:00,70.2,65.5,29.97,East,83,9.2,9.2,85,0.00,FEW,,0.00,WeatherDisplay:10.37,2013-10-18 17:18:00,
2013-10-18 19:23:00,70.2,65.5,29.97,ESE,121,8.0,8.0,85,0.00,FEW,,0.00,WeatherDisplay:10.37,2013-10-18 17:23:00,
2013-10-18 19:28:00,70.1,65.7,29.97,East,93,8.1,8.1,86,0.00,FEW,,0.00,WeatherDisplay:10.37,2013-10-18 17:28:00,
2013-10-18 19:33:00,70.1,65.7,29.97,East,92,9.2,9.2,86,0.00,FEW,,0.00,WeatherDisplay:10.37,2013-10-18 17:33:00,
2013-10-18 19:35:00,70.1,65.7,29.97,SE,128,9.2,9.2,86,0.00,FEW,,0.00,WeatherDisplay:10.37,2013-10-18 17:35:00,
2013-10-18 19:40:00,70.0,65.6,29.97,ESE,119,10.4,10.4,86,0.00,FEW,,0.00,WeatherDisplay:10.37,2013-10-18 17:40:00,
2013-10-18 19:45:00,70.0,65.6,29.97,ESE,109,8.1,8.1,86,0.00,FEW,,0.00,WeatherDisplay:10.37,2013-10-18 17:45:00,
2013-10-18 19:50:00,70.0,66.0,29.97,ESE,113,9.2,9.2,87,0.00,FEW,,0.00,WeatherDisplay:10.37,2013-10-18 17:50:00,
2013-10-18 19:55:00,69.9,65.9,29.98,SE,135,9.2,9.2,87,0.00,FEW,,0.00,WeatherDisplay:10.37,2013-10-18 17:55:00,
2013-10-18 20:00:00,69.8,65.8,29.98,SE,124,9.2,9.2,87,0.00,FEW,,0.00,WeatherDisplay:10.37,2013-10-18 18:00:00,
2013-10-18 20:05:00,69.8,65.8,29.97,ESE,118,9.0,9.0,87,0.00,FEW,,0.00,WeatherDisplay:10.37,2013-10-18 18:05:00,
2013-10-18 20:10:00,69.7,65.7,29.98,SE,127,9.2,9.2,87,0.00,FEW,,0.00,WeatherDisplay:10.37,2013-10-18 18:10:00,
2013-10-18 20:15:00,69.6,65.6,29.98,ESE,112,9.2,9.2,87,0.00,FEW,,0.00,WeatherDisplay:10.37,2013-10-18 18:15:00,
2013-10-18 20:20:00,69.6,65.6,29.98,East,91,9.2,9.2,87,0.00,FEW,,0.00,WeatherDisplay:10.37,2013-10-18 18:20:00,
2013-10-18 20:25:00,69.6,65.6,29.98,ESE,104,9.2,9.2,87,0.00,FEW,,0.00,WeatherDisplay:10.37,2013-10-18 18:25:00,
2013-10-18 20:30:00,69.6,65.6,29.98,ESE,120,10.4,10.4,87,0.00,FEW,,0.00,WeatherDisplay:10.37,2013-10-18 18:30:00,
2013-10-18 20:35:00,69.6,65.6,29.98,SE,135,9.2,9.2,87,0.00,FEW,,0.00,WeatherDisplay:10.37,2013-10-18 18:35:00,
2013-10-18 20:40:00,69.5,65.5,29.98,SE,129,6.9,6.9,87,0.00,FEW,,0.00,WeatherDisplay:10.37,2013-10-18 18:40:00,
2013-10-18 20:45:00,69.5,65.8,29.98,ESE,107,9.2,9.2,88,0.00,FEW,,0.00,WeatherDisplay:10.37,2013-10-18 18:45:00,
2013-10-18 20:50:00,69.5,65.5,29.98,SE,129,10.4,10.4,87,0.00,FEW,,0.00,WeatherDisplay:10.37,2013-10-18 18:50:00,
2013-10-18 20:55:00,69.5,65.5,29.98,SE,134,8.1,8.1,87,0.00,FEW,,0.00,WeatherDisplay:10.37,2013-10-18 18:55:00,
2013-10-18 21:00:00,69.4,65.4,29.98,SE,124,8.1,8.1,87,0.00,FEW,,0.00,WeatherDisplay:10.37,2013-10-18 19:00:00,
2013-10-18 21:05:00,69.5,65.8,29.98,SE,130,10.4,10.4,88,0.00,FEW,,0.00,WeatherDisplay:10.37,2013-10-18 19:05:00,
2013-10-18 21:10:00,69.4,65.7,29.99,SE,126,9.2,9.2,88,0.00,FEW,,0.00,WeatherDisplay:10.37,2013-10-18 19:10:00,
2013-10-18 21:15:00,69.4,65.7,29.99,ESE,120,8.1,8.1,88,0.00,FEW,,0.00,WeatherDisplay:10.37,2013-10-18 19:15:00,
2013-10-18 21:20:00,69.4,65.7,29.99,SE,129,6.9,6.9,88,0.00,FEW,,0.00,WeatherDisplay:10.37,2013-10-18 19:20:00,
2013-10-18 21:25:00,69.4,65.7,29.99,ESE,123,8.1,8.1,88,0.00,FEW,,0.00,WeatherDisplay:10.37,2013-10-18 19:25:00,
2013-10-18 21:30:00,69.4,65.7,29.99,SE,128,7.0,7.0,88,0.00,FEW,,0.00,WeatherDisplay:10.37,2013-10-18 19:30:00,
2013-10-18 21:35:00,69.4,65.7,29.99,East,87,9.2,9.2,88,0.00,FEW,,0.00,WeatherDisplay:10.37,2013-10-18 19:35:00,
2013-10-18 21:40:00,69.3,65.6,29.99,SE,134,9.2,9.2,88,0.00,FEW,,0.00,WeatherDisplay:10.37,2013-10-18 19:40:00,
2013-10-18 21:45:00,69.3,65.6,29.99,ENE,78,9.2,9.2,88,0.00,FEW,,0.00,WeatherDisplay:10.37,2013-10-18 19:45:00,
2013-10-18 21:50:00,69.3,65.6,29.99,ESE,103,8.1,8.1,88,0.00,FEW,,0.00,WeatherDisplay:10.37,2013-10-18 19:50:00,
2013-10-18 21:55:00,69.3,65.6,30.00,SE,127,9.2,9.2,88,0.00,FEW,,0.00,WeatherDisplay:10.37,2013-10-18 19:55:00,
2013-10-18 22:00:00,69.3,65.6,30.00,SE,133,9.2,9.2,88,0.00,FEW,,0.00,WeatherDisplay:10.37,2013-10-18 20:00:00,
2013-10-18 22:05:00,69.3,65.6,30.00,ESE,108,5.0,5.0,88,0.00,FEW,,0.00,WeatherDisplay:10.37,2013-10-18 20:05:00,
2013-10-18 22:10:00,69.3,65.6,30.00,ESE,118,7.0,7.0,88,0.00,FEW,,0.00,WeatherDisplay:10.37,2013-10-18 20:10:00,
2013-10-18 22:15:00,69.3,65.6,30.00,ESE,116,8.1,8.1,88,0.00,FEW,,0.00,WeatherDisplay:10.37,2013-10-18 20:15:00,
2013-10-18 22:20:00,69.3,65.6,30.00,ESE,118,8.1,8.1,88,0.00,FEW,,0.00,WeatherDisplay:10.37,2013-10-18 20:20:00,
2013-10-18 22:25:00,69.2,65.5,30.00,ESE,120,8.1,8.1,88,0.00,FEW,,0.00,WeatherDisplay:10.37,2013-10-18 20:25:00,
2013-10-18 22:30:00,69.2,65.5,30.00,ESE,114,11.0,11.0,88,0.00,FEW,,0.00,WeatherDisplay:10.37,2013-10-18 20:30:00,
2013-10-18 22:35:00,69.2,65.5,30.00,SE,128,10.4,10.4,88,0.00,FEW,,0.00,WeatherDisplay:10.37,2013-10-18 20:35:00,
2013-10-18 22:40:00,69.1,65.4,30.00,SE,134,10.4,10.4,88,0.00,FEW,,0.00,WeatherDisplay:10.37,2013-10-18 20:40:00,
2013-10-18 22:45:00,69.0,65.3,30.00,ESE,110,11.5,11.5,88,0.00,FEW,,0.00,WeatherDisplay:10.37,2013-10-18 20:45:00,
2013-10-18 22:50:00,69.0,65.3,29.99,ESE,118,11.5,11.5,88,0.00,FEW,,0.00,WeatherDisplay:10.37,2013-10-18 20:50:00,
2013-10-18 22:55:00,69.0,65.3,30.00,ESE,102,9.2,9.2,88,0.00,FEW,,0.00,WeatherDisplay:10.37,2013-10-18 20:55:00,
2013-10-18 23:00:00,68.9,65.2,30.00,East,91,8.1,8.1,88,0.00,FEW,,0.00,WeatherDisplay:10.37,2013-10-18 21:00:00,
2013-10-18 23:05:00,69.0,65.3,30.00,ESE,120,11.5,11.5,88,0.00,FEW,,0.00,WeatherDisplay:10.37,2013-10-18 21:05:00,
2013-10-18 23:10:00,69.0,65.3,30.00,ESE,122,10.4,10.4,88,0.00,FEW,,0.00,WeatherDisplay:10.37,2013-10-18 21:10:00,
2013-10-18 23:15:00,69.0,65.3,30.00,ESE,120,10.4,10.4,88,0.00,FEW,,0.00,WeatherDisplay:10.37,2013-10-18 21:15:00,
2013-10-18 23:20:00,69.0,65.3,30.00,ESE,119,10.4,10.4,88,0.00,FEW,,0.00,WeatherDisplay:10.37,2013-10-18 21:20:00,
2013-10-18 23:25:00,69.0,65.3,30.00,ESE,113,11.5,11.5,88,0.00,FEW,,0.00,WeatherDisplay:10.37,2013-10-18 21:25:00,
2013-10-18 23:30:00,69.1,65.4,30.00,East,95,10.0,10.0,88,0.00,FEW,,0.00,WeatherDisplay:10.37,2013-10-18 21:30:00,
2013-10-18 23:35:00,69.1,65.4,30.00,SE,139,9.2,9.2,88,0.00,FEW,,0.00,WeatherDisplay:10.37,2013-10-18 21:35:00,
2013-10-18 23:40:00,69.1,65.4,30.00,SE,130,10.4,10.4,88,0.00,FEW,,0.00,WeatherDisplay:10.37,2013-10-18 21:40:00,
2013-10-18 23:45:00,69.0,65.3,30.00,SE,135,10.4,10.4,88,0.00,FEW,,0.00,WeatherDisplay:10.37,2013-10-18 21:45:00,
2013-10-18 23:50:00,68.9,65.2,30.00,East,91,10.4,10.4,88,0.00,FEW,,0.00,WeatherDisplay:10.37,2013-10-18 21:50:00,
2013-10-18 23:55:00,68.9,65.2,30.00,ESE,112,11.5,11.5,88,0.00,FEW,,0.00,WeatherDisplay:10.37,2013-10-18 21:55:00,